Jesup, GA

8:36 AM EST on December 04, 2016 (GMT -0500)
Jesup-Wayne County

Weather History for KJES - April, 2014

Change the Weather History Date:

Friday, April 4, 2014

  Actual Average (KLHW) Record (KLHW)
Temperature  
Mean Temperature 66 °F -  
Max Temperature 80 °F 78 °F 90 °F (1977)
Min Temperature 53 °F 53 °F 36 °F (1971)
Cooling Degree Days 2    
Growing Degree Days 16 (Base 50)    
Moisture  
Dew Point 59 °F    
Average Humidity 80    
Maximum Humidity 100    
Minimum Humidity 48    
Precipitation  
Precipitation 0.00 in - - ()
Sea Level Pressure  
Sea Level Pressure 30.00 in    
Wind  
Wind Speed 4 mph (WSW)    
Max Wind Speed 18 mph    
Max Gust Speed 23 mph    
Visibility 9 miles    
Events Fog    
Averages and records for this station are not official NWS values.
T = Trace of Precipitation, MM = Missing Value Source: NWS Daily Summary

Daily Weather History Graph

Daily Weather History Graph

Search for Another Location

Airport or City:

Trip Planner

Search our weather history database for the weather conditions in past years. The results will help you decide how hot, cold, wet, or windy it might be!

Date:

Astronomy

Apr. 04, 2014 Rise Set
Actual Time 7:12 AM EDT 7:49 PM EDT
Civil Twilight 6:47 AM EDT 8:13 PM EDT
Nautical Twilight 6:19 AM EDT 8:42 PM EDT
Astronomical Twilight 5:49 AM EDT 9:11 PM EDT
Moon 10:41 AM EDT No Moon Set
Length of Visible Light 13h 25m
Length of Day
12h 36m
Waxing Crescent, 25% of the Moon is Illuminated
Apr 4
Waxing Crescent
Apr 7
First Quarter
Apr 15
Full
Apr 22
Last Quarter
Apr 29
New

Hourly Weather History & Observations

Time (EDT) Temp. Heat Index Dew Point Humidity Pressure Visibility Wind Dir Wind Speed Gust Speed Precip Events Conditions
12:15 AM 60.8 °F - 59.0 °F 94% 30.04 in 10.0 mi Calm Calm - N/A   Clear
12:35 AM 59.0 °F - 59.0 °F 100% 30.04 in 10.0 mi Calm Calm - N/A   Clear
12:55 AM 57.2 °F - 57.2 °F 100% 30.03 in 10.0 mi Calm Calm - N/A   Clear
1:15 AM 57.2 °F - 57.2 °F 100% 30.03 in 10.0 mi Calm Calm - N/A   Clear
1:35 AM 59.0 °F - 59.0 °F 100% 30.03 in 10.0 mi Calm Calm - N/A   Clear
1:55 AM 55.4 °F - 55.4 °F 100% 30.03 in 5.0 mi Calm Calm - N/A   Clear
2:15 AM 55.4 °F - 55.4 °F 100% 30.02 in 7.0 mi WSW 3.5 mph - N/A   Clear
2:35 AM 55.4 °F - 55.4 °F 100% 30.01 in 7.0 mi SW 4.6 mph - N/A   Clear
2:55 AM 55.4 °F - 55.4 °F 100% 30.00 in 10.0 mi SW 3.5 mph - N/A   Clear
3:15 AM 55.4 °F - 55.4 °F 100% 29.99 in 10.0 mi SW 3.5 mph - N/A   Clear
3:35 AM 55.4 °F - 55.4 °F 100% 29.98 in 10.0 mi SW 3.5 mph - N/A   Clear
3:55 AM 59.0 °F - 57.2 °F 94% 29.98 in 10.0 mi WSW 3.5 mph - N/A   Clear
4:15 AM 57.2 °F - 57.2 °F 100% 29.97 in 10.0 mi SW 3.5 mph - N/A   Clear
4:35 AM 55.4 °F - 55.4 °F 100% 29.98 in 10.0 mi SSW 3.5 mph - N/A   Clear
4:55 AM 55.4 °F - 55.4 °F 100% 29.99 in 10.0 mi SW 3.5 mph - N/A   Clear
5:15 AM 55.4 °F - 55.4 °F 100% 30.00 in 10.0 mi Calm Calm - N/A   Clear
5:35 AM 55.4 °F - 55.4 °F 100% 30.00 in 5.0 mi Calm Calm - N/A   Clear
5:55 AM 55.4 °F - 55.4 °F 100% 30.00 in 5.0 mi Calm Calm - N/A   Clear
6:15 AM 53.6 °F - 53.6 °F 100% 30.01 in 5.0 mi Calm Calm - N/A   Clear
6:35 AM 53.6 °F - 53.6 °F 100% 30.01 in 3.0 mi Calm Calm - N/A   Clear
6:55 AM 53.6 °F - 53.6 °F 100% 30.00 in 2.0 mi Calm Calm - N/A   Clear
7:15 AM 53.6 °F - 53.6 °F 100% 30.00 in 0.5 mi Calm Calm - N/A Fog Fog
7:35 AM 55.4 °F - 55.4 °F 100% 30.00 in 2.5 mi SSW 3.5 mph - N/A   Clear
7:55 AM 55.4 °F - 55.4 °F 100% 30.01 in 4.0 mi SSW 3.5 mph - N/A   Clear
8:15 AM 57.2 °F - 57.2 °F 100% 30.02 in 7.0 mi SSW 3.5 mph - N/A   Clear
8:35 AM 59.0 °F - 59.0 °F 100% 30.03 in 10.0 mi WSW 3.5 mph - N/A   Clear
8:55 AM 60.8 °F - 60.8 °F 100% 30.03 in 10.0 mi SW 5.8 mph - N/A   Scattered Clouds
9:15 AM 62.6 °F - 62.6 °F 100% 30.03 in 10.0 mi West 5.8 mph - N/A   Mostly Cloudy
9:35 AM 64.4 °F - 62.6 °F 94% 30.03 in 10.0 mi WSW 6.9 mph - N/A   Mostly Cloudy
9:55 AM 64.4 °F - 62.6 °F 94% 30.03 in 10.0 mi West 9.2 mph - N/A   Mostly Cloudy
10:15 AM 66.2 °F - 62.6 °F 88% 30.04 in 10.0 mi West 6.9 mph - N/A   Scattered Clouds
10:35 AM 68.0 °F - 62.6 °F 83% 30.05 in 10.0 mi WNW 8.1 mph - N/A   Clear
10:55 AM 68.0 °F - 62.6 °F 83% 30.05 in 10.0 mi WNW 9.2 mph - N/A   Scattered Clouds
11:15 AM 69.8 °F - 62.6 °F 78% 30.06 in 10.0 mi NW 10.4 mph - N/A   Mostly Cloudy
11:35 AM 71.6 °F - 62.6 °F 73% 30.07 in 10.0 mi West 8.1 mph - N/A   Overcast
12:15 PM 71.6 °F - 62.6 °F 73% 30.07 in 10.0 mi West 11.5 mph 17.3 mph N/A   Overcast
12:35 PM 73.4 °F - 62.6 °F 69% 30.08 in 10.0 mi West 15.0 mph 23.0 mph N/A   Mostly Cloudy
12:55 PM 75.2 °F - 62.6 °F 65% 30.09 in 10.0 mi West 13.8 mph 23.0 mph N/A   Overcast
1:15 PM 73.4 °F - 62.6 °F 69% 30.08 in 10.0 mi West 13.8 mph 23.0 mph N/A   Mostly Cloudy
1:55 PM 75.2 °F - 60.8 °F 61% 30.07 in 10.0 mi WNW 11.5 mph 20.7 mph N/A   Scattered Clouds
2:15 PM 77.0 °F - 62.6 °F 61% 30.06 in 10.0 mi NW 17.3 mph - N/A   Mostly Cloudy
2:35 PM 77.0 °F - 60.8 °F 57% 30.06 in 10.0 mi WNW 9.2 mph 18.4 mph N/A   Scattered Clouds
2:55 PM 77.0 °F - 60.8 °F 57% 30.05 in 10.0 mi WNW 18.4 mph 23.0 mph N/A   Mostly Cloudy
3:15 PM 77.0 °F - 60.8 °F 57% 30.04 in 10.0 mi West 9.2 mph 18.4 mph N/A   Overcast
3:35 PM 78.8 °F - 60.8 °F 54% 30.02 in 10.0 mi West 10.4 mph 18.4 mph N/A   Scattered Clouds
3:55 PM 78.8 °F - 59.0 °F 51% 30.01 in 10.0 mi West 11.5 mph 20.7 mph N/A   Clear
4:15 PM 78.8 °F - 60.8 °F 54% 30.00 in 10.0 mi WNW 10.4 mph - N/A   Scattered Clouds
4:35 PM 78.8 °F - 59.0 °F 51% 29.99 in 10.0 mi WNW 13.8 mph - N/A   Scattered Clouds
4:55 PM 80.6 °F 81.1 °F 59.0 °F 48% 29.99 in 10.0 mi West 10.4 mph 16.1 mph N/A   Clear
5:15 PM 80.6 °F 81.1 °F 59.0 °F 48% 29.98 in 10.0 mi WNW 8.1 mph - N/A   Scattered Clouds
5:35 PM 80.6 °F 81.1 °F 59.0 °F 48% 29.98 in 10.0 mi West 6.9 mph 17.3 mph N/A   Clear
5:55 PM 78.8 °F - 59.0 °F 51% 29.97 in 10.0 mi West 6.9 mph - N/A   Clear
6:15 PM 78.8 °F - 59.0 °F 51% 29.96 in 10.0 mi WSW 11.5 mph - N/A   Clear
6:35 PM 78.8 °F - 59.0 °F 51% 29.95 in 10.0 mi SW 8.1 mph - N/A   Clear
6:55 PM 77.0 °F - 59.0 °F 54% 29.96 in 10.0 mi WSW 8.1 mph - N/A   Clear
7:15 PM 77.0 °F - 59.0 °F 54% 29.96 in 10.0 mi WSW 4.6 mph - N/A   Clear
7:35 PM 73.4 °F - 59.0 °F 61% 29.96 in 10.0 mi SW 4.6 mph - N/A   Clear
7:55 PM 73.4 °F - 59.0 °F 61% 29.96 in 10.0 mi SW 4.6 mph - N/A   Clear
8:15 PM 71.6 °F - 59.0 °F 64% 29.95 in 10.0 mi SW 3.5 mph - N/A   Clear
8:35 PM 71.6 °F - 59.0 °F 64% 29.95 in 10.0 mi SW 3.5 mph - N/A   Clear
8:55 PM 69.8 °F - 59.0 °F 68% 29.95 in 10.0 mi SW 4.6 mph - N/A   Clear
9:15 PM 69.8 °F - 59.0 °F 68% 29.95 in 10.0 mi SSW 4.6 mph - N/A   Clear
9:35 PM 68.0 °F - 59.0 °F 73% 29.93 in 10.0 mi South 5.8 mph - N/A   Clear
9:55 PM 68.0 °F - 59.0 °F 73% 29.93 in 10.0 mi SSW 3.5 mph - N/A   Clear
10:15 PM 68.0 °F - 59.0 °F 73% 29.94 in 10.0 mi Calm Calm - N/A   Clear
10:55 PM 62.6 °F - 59.0 °F 88% 29.95 in 10.0 mi Calm Calm - N/A   Clear
11:15 PM 62.6 °F - 59.0 °F 88% 29.95 in 10.0 mi Calm Calm - N/A   Clear
11:35 PM 60.8 °F - 57.2 °F 88% 29.95 in 10.0 mi Calm Calm - N/A   Clear
11:55 PM 59.0 °F - 57.2 °F 94% 29.95 in 10.0 mi Calm Calm - N/A   Clear